[[{"header":{"parameterUnit":"m.s-1","parameterCategory":1,"la1":30.2991,"la2":30.254,"lo1":-89.0895,"lo2":-89.0444,"dy":0.0017,"dx":0.0017,"nx":28,"ny":28,"refTime":"2025-04-30T21:00:00:Z","depth":0,"parameterNumber":2,"parameterNumberName":"U-component_of_WINDS"},"data":[0,0,0,0,0,0,0,0,0,0,0,0,0,0,0,0,0,0,0,0,0,0,0,0,0,0,0,0,0,0,0,0,0,0,0,0,0,0,0,0,0,0,0,0,0,0,0,0,0,0,0,0,0,0,0,0,0,0,-1.5481,-1.5482,0,-1.5604,-1.5606,-1.5607,-1.5632,-1.5631,-1.563,-1.5629,-1.576,-1.5764,-1.5768,0,0,0,0,0,0,0,0,0,0,0,0,0,-1.5273,-1.5277,-1.5481,-1.5483,-1.5484,-1.5604,-1.5606,-1.5607,-1.5632,-1.5631,-1.5629,-1.5628,-1.5758,-1.5763,-1.5769,0,0,0,0,0,0,0,0,0,0,0,0,0,-1.5377,-1.5278,-1.5481,-1.551,-1.5514,-1.5604,-1.5606,-1.5608,-1.5632,-1.5631,-1.5629,-1.5628,-1.5756,-1.5763,-1.5769,-1.5839,0,0,-1.5789,-1.5792,0,0,0,0,0,0,0,0,-1.5371,-1.5384,-1.5505,-1.5509,-1.5513,-1.5601,-1.5581,-1.5686,-1.5632,-1.5587,-1.5629,-1.5627,-1.5708,-1.5719,-1.5745,-1.5845,-1.5851,-1.579,-1.5794,-1.5797,-1.5799,0,0,0,0,0,0,0,-1.5364,-1.5379,-1.553,-1.5506,-1.5512,-1.552,-1.5533,-1.5601,-1.5655,-1.5591,-1.5593,-1.5607,-1.571,-1.5739,-1.5748,-1.5853,-1.579,-1.5796,-1.58,-1.5802,-1.602,-1.6021,0,0,0,0,0,0,-1.535,-1.5373,-1.5526,-1.5534,-1.5437,-1.5525,-1.5539,-1.5574,-1.5654,-1.5665,-1.5608,-1.5608,-1.5728,-1.5741,-1.5753,-1.5842,-1.5797,-1.5803,-1.5807,-1.6018,-1.602,-1.6022,0,0,0,0,0,0,-1.5346,-1.5364,-1.5521,-1.5454,-1.5475,-1.553,-1.5569,-1.5578,-1.5606,-1.5667,-1.5677,-1.5627,-1.5728,-1.5744,-1.5818,-1.5847,-1.5806,-1.5812,-1.6016,-1.6019,-1.6021,-1.6018,0,0,0,0,0,0,-1.534,-1.5362,-1.5387,-1.5454,-1.5478,-1.5582,-1.5571,-1.5581,-1.5617,-1.5617,-1.5687,-1.5697,-1.5728,-1.5808,-1.5824,-1.5855,-1.5817,-1.6013,-1.6017,-1.602,-1.6016,-1.6021,-1.6025,0,0,0,0,0,-1.5332,-1.5382,-1.5388,-1.5407,-1.551,-1.5583,-1.5597,-1.5629,-1.5619,-1.5646,-1.5686,-1.5695,-1.5841,-1.5815,-1.5834,-1.5867,-1.6012,-1.6016,-1.602,-1.6014,-1.602,-1.6024,0,0,0,0,0,0,-1.5318,-1.5391,-1.5399,-1.5472,-1.5521,-1.5587,-1.5622,-1.5634,-1.5688,-1.5687,-1.5727,-1.5742,-1.5814,-1.5848,-1.5819,-1.5941,-1.5926,-1.5934,-1.5915,-1.5921,-1.5925,-1.5916,-1.5822,0,0,0,0,0,-1.5323,-1.5374,-1.5436,-1.5494,-1.5518,-1.5566,-1.5599,-1.562,-1.5673,-1.5694,-1.5739,-1.5792,-1.5851,-1.5888,-1.5944,-1.6022,-1.6039,-1.6054,-1.6058,-1.6061,-1.6068,-1.6114,-1.6122,-1.6036,-1.6036,-1.6035,0,0,-1.5334,-1.5381,-1.5411,-1.5493,-1.5533,-1.5587,-1.5583,-1.564,-1.5682,-1.5704,-1.5776,-1.5811,-1.5873,-1.595,-1.5986,-1.598,-1.6096,-1.6066,-1.6068,-1.6074,-1.6119,-1.6127,-1.6134,-1.6038,-1.6038,-1.6037,0,0,-1.5383,-1.5422,-1.5476,-1.5517,-1.5578,-1.561,-1.5623,-1.5688,-1.5712,-1.5785,-1.5804,-1.5855,-1.5953,-1.5997,-1.6032,-1.61,-1.6112,-1.6118,-1.614,-1.6184,-1.6191,-1.6197,-1.6223,-1.6232,-1.6124,-1.6124,-1.6124,0,-1.5389,-1.5469,-1.5502,-1.5559,-1.5596,-1.5617,-1.5674,-1.5713,-1.579,-1.5816,-1.5808,-1.5934,-1.5977,-1.6065,-1.6082,-1.6109,-1.6127,-1.611,-1.6187,-1.6194,-1.62,-1.6225,-1.6235,-1.6125,-1.6125,-1.6125,-1.6125,0,-1.5476,-1.5532,-1.5568,-1.5641,-1.5682,-1.5738,-1.5782,-1.582,-1.5838,-1.5872,-1.5948,-1.6001,-1.6069,-1.6092,-1.611,-1.6184,-1.6179,-1.6179,-1.6165,-1.6208,-1.6233,-1.6243,-1.6125,-1.6125,-1.6125,-1.6125,0,0,-1.5517,-1.5609,-1.5622,-1.5656,-1.5727,-1.5772,-1.5831,-1.5897,-1.5929,-1.5983,-1.6035,-1.6119,-1.612,-1.616,-1.6184,-1.6223,-1.6276,-1.6219,-1.6221,-1.6228,-1.6363,-1.6362,-1.6373,-1.6284,-1.6286,-1.6288,-1.6358,0,-1.5575,-1.5678,-1.571,-1.5797,-1.5851,-1.5874,-1.5925,-1.5976,-1.6009,-1.6061,-1.6099,-1.6158,-1.6155,-1.6179,-1.6219,-1.6261,-1.6304,-1.6256,-1.6335,-1.6337,-1.6319,-1.6385,-1.6385,-1.6449,-1.6368,-1.6369,-1.637,0,-1.5656,-1.5709,-1.5801,-1.5867,-1.5891,-1.5936,-1.6001,-1.605,-1.6108,-1.613,-1.6176,-1.6198,-1.6263,-1.6246,-1.6337,-1.6304,-1.6339,-1.6365,-1.6368,-1.6377,-1.6356,-1.6397,-1.6469,-1.6479,-1.6386,-1.6384,-1.6383,0,-1.5678,-1.5774,-1.5842,-1.5871,-1.5949,-1.5981,-1.6015,-1.6072,-1.6111,-1.6168,-1.6194,-1.6259,-1.6294,-1.6345,-1.6385,-1.6368,-1.6474,-1.6459,-1.6495,-1.6495,-1.6516,-1.6515,-1.6596,-1.6538,-1.6537,-1.6537,-1.6537,0,-1.574,-1.5795,-1.5853,-1.5895,-1.596,-1.5998,-1.6061,-1.6097,-1.6148,-1.62,-1.6224,-1.6272,-1.6321,-1.6376,-1.6408,-1.648,-1.6496,-1.6517,-1.6525,-1.6516,-1.6513,-1.6539,-1.6536,-1.654,-1.6539,-1.6539,-1.6538,0,-1.5776,-1.5816,-1.5892,-1.596,-1.5979,-1.6023,-1.6083,-1.6126,-1.6161,-1.6226,-1.6243,-1.6299,-1.6366,-1.641,-1.6496,-1.6517,-1.6596,-1.6603,-1.6576,-1.658,-1.6614,-1.661,-1.6715,-1.6732,-1.6661,-1.6662,-1.6662,0,-1.5812,-1.5856,-1.5928,-1.5963,-1.5998,-1.6054,-1.6094,-1.6134,-1.6175,-1.6246,-1.6281,-1.6349,-1.6406,-1.6512,-1.6562,-1.6628,-1.6637,-1.6669,-1.6647,-1.6637,-1.6639,-1.6636,-1.6642,-1.6673,-1.6673,-1.6674,-1.6674,0,-1.5874,-1.5892,-1.5947,-1.6009,-1.6056,-1.6107,-1.6159,-1.6188,-1.6238,-1.6282,-1.635,-1.6394,-1.6482,-1.655,-1.6621,-1.6659,-1.6676,-1.6681,-1.6693,-1.6684,-1.6667,-1.6678,-1.6586,-1.6678,-1.6678,-1.6677,-1.6677,-1.6677,-1.5912,-1.5953,-1.601,-1.6071,-1.6115,-1.6163,-1.6207,-1.6248,-1.6304,-1.6378,-1.6399,-1.647,-1.6531,-1.6628,-1.6668,-1.6726,-1.6723,-1.674,-1.6745,-1.6749,-1.675,-1.6657,-1.6739,-1.6739,-1.6739,-1.6739,-1.6739,0,-1.5976,-1.6014,-1.607,-1.6142,-1.6191,-1.6201,-1.6259,-1.63,-1.6362,-1.6416,-1.6472,-1.6551,-1.6618,-1.6673,-1.6743,-1.6779,-1.6789,-1.6796,-1.6794,-1.6803,-1.6748,-1.673,-1.6787,-1.6787,-1.6787,-1.6787,-1.6787,-1.6787,-1.6015,-1.6084,-1.611,-1.6202,-1.6241,-1.631,-1.6343,-1.6389,-1.6433,-1.6519,-1.6575,-1.661,-1.6666,-1.674,-1.6803,-1.6818,-1.6843,-1.6849,-1.6866,-1.6812,-1.6807,-1.6802,-1.6786,-1.6854,-1.6854,-1.6917,-1.6918,-1.6918]},{"header":{"parameterUnit":"m.s-1","parameterCategory":1,"la1":30.2991,"la2":30.254,"lo1":-89.0895,"lo2":-89.0444,"dy":0.0017,"dx":0.0017,"nx":28,"ny":28,"refTime":"2025-04-30T21:00:00:Z","depth":0,"parameterNumber":3,"parameterNumberName":"V-component_of_WINDS"},"data":[0,0,0,0,0,0,0,0,0,0,0,0,0,0,0,0,0,0,0,0,0,0,0,0,0,0,0,0,0,0,0,0,0,0,0,0,0,0,0,0,0,0,0,0,0,0,0,0,0,0,0,0,0,0,0,0,0,0,5.2063,5.2063,0,5.2055,5.2054,5.2054,5.2057,5.2057,5.2057,5.2057,5.2048,5.2047,5.2047,0,0,0,0,0,0,0,0,0,0,0,0,0,5.2079,5.2079,5.2063,5.2063,5.2063,5.2055,5.2054,5.2054,5.2057,5.2057,5.2057,5.2057,5.2048,5.2047,5.2047,0,0,0,0,0,0,0,0,0,0,0,0,0,5.2071,5.2079,5.2063,5.2063,5.2063,5.2055,5.2054,5.2054,5.2057,5.2057,5.2057,5.2057,5.2048,5.2047,5.2047,5.2038,0,0,5.2045,5.2044,0,0,0,0,0,0,0,0,5.2072,5.2071,5.2063,5.2063,5.2063,5.2057,5.2057,5.2049,5.2057,5.2059,5.2057,5.2058,5.205,5.205,5.2047,5.2037,5.2037,5.2045,5.2044,5.2044,5.2044,0,0,0,0,0,0,0,5.2072,5.2071,5.2059,5.2063,5.2063,5.2063,5.2062,5.2055,5.2053,5.2059,5.2059,5.2058,5.205,5.2048,5.2047,5.2037,5.2045,5.2044,5.2044,5.2043,5.2018,5.2017,0,0,0,0,0,0,5.2073,5.2072,5.206,5.2059,5.2068,5.2062,5.2061,5.2058,5.2053,5.2053,5.2058,5.2058,5.2049,5.2048,5.2047,5.2036,5.2044,5.2043,5.2043,5.2018,5.2018,5.2017,0,0,0,0,0,0,5.2073,5.2072,5.206,5.2065,5.2064,5.2062,5.2058,5.2058,5.2056,5.2053,5.2052,5.2056,5.2049,5.2048,5.204,5.2035,5.2043,5.2043,5.2018,5.2018,5.2017,5.2013,0,0,0,0,0,0,5.2074,5.2072,5.2069,5.2065,5.2064,5.2054,5.2058,5.2058,5.2055,5.2055,5.2051,5.205,5.2049,5.2041,5.2039,5.2035,5.2042,5.2019,5.2018,5.2018,5.2014,5.2012,5.2012,0,0,0,0,0,5.2074,5.2068,5.2069,5.2067,5.206,5.2053,5.2052,5.2052,5.2055,5.2051,5.2049,5.205,5.2036,5.204,5.2038,5.2033,5.2019,5.2018,5.2018,5.2014,5.2013,5.2012,0,0,0,0,0,0,5.2071,5.2068,5.2069,5.2061,5.2057,5.2054,5.205,5.205,5.2046,5.2046,5.2045,5.2044,5.2036,5.2034,5.2038,5.2024,5.2028,5.2027,5.2026,5.2024,5.2023,5.2024,5.2042,0,0,0,0,0,5.2069,5.2065,5.2062,5.2055,5.2054,5.2052,5.2049,5.2049,5.2045,5.2044,5.2041,5.2037,5.2031,5.2028,5.2023,5.2013,5.2012,5.2009,5.2008,5.2007,5.2006,5.2,5.1999,5.2015,5.2015,5.2015,0,0,5.2066,5.2063,5.2061,5.2055,5.2052,5.2047,5.2051,5.2045,5.2041,5.2043,5.2035,5.2033,5.2028,5.2019,5.2015,5.2017,5.2001,5.2006,5.2006,5.2005,5.2,5.1998,5.1997,5.2014,5.2015,5.2015,0,0,5.2057,5.2055,5.2049,5.2046,5.2042,5.2041,5.2039,5.2036,5.2034,5.2027,5.2028,5.2022,5.2013,5.201,5.2007,5.1996,5.1997,5.1994,5.1989,5.1983,5.1982,5.1981,5.1977,5.1975,5.1993,5.1993,5.1993,0,5.2053,5.2046,5.2046,5.204,5.2037,5.2038,5.2032,5.2029,5.2024,5.2021,5.2023,5.2012,5.2009,5.1999,5.1996,5.1994,5.1992,5.1995,5.1982,5.1981,5.198,5.1976,5.1974,5.1993,5.1993,5.1993,5.1993,0,5.2041,5.2036,5.2031,5.2026,5.2023,5.2017,5.2015,5.2011,5.2011,5.201,5.2002,5.1998,5.1992,5.199,5.1989,5.1979,5.1981,5.1983,5.1987,5.1978,5.1974,5.1973,5.1992,5.1993,5.1993,5.1993,0,0,5.203,5.2024,5.2023,5.202,5.2016,5.2011,5.2005,5.1999,5.1996,5.1992,5.1986,5.1978,5.198,5.1977,5.1976,5.1971,5.1962,5.1974,5.1973,5.1971,5.195,5.1949,5.1947,5.1963,5.1962,5.1962,5.1951,0,5.202,5.201,5.2009,5.1999,5.1994,5.1995,5.199,5.1986,5.1984,5.1979,5.1977,5.1971,5.1974,5.1972,5.1967,5.1964,5.1958,5.1965,5.1957,5.1957,5.1958,5.1945,5.1944,5.1933,5.1949,5.1949,5.1949,0,5.2008,5.2004,5.1993,5.1989,5.1987,5.1982,5.1977,5.1972,5.1967,5.1966,5.1962,5.1962,5.1955,5.1959,5.1949,5.1954,5.1951,5.1949,5.1948,5.1947,5.1952,5.1944,5.193,5.1928,5.1946,5.1947,5.1947,0,5.2,5.1992,5.1985,5.1983,5.1978,5.1974,5.1972,5.1967,5.1964,5.1959,5.1956,5.1951,5.1947,5.1942,5.194,5.1944,5.193,5.1934,5.1929,5.1929,5.1926,5.1926,5.1911,5.1924,5.1924,5.1924,5.1924,0,5.199,5.1984,5.1981,5.1977,5.197,5.1969,5.1961,5.1959,5.1955,5.195,5.195,5.1945,5.1943,5.1937,5.1935,5.1927,5.1926,5.1924,5.1924,5.1924,5.1924,5.1922,5.1922,5.1923,5.1923,5.1924,5.1924,0,5.1981,5.1979,5.1971,5.1967,5.1966,5.196,5.1956,5.1952,5.195,5.1943,5.1941,5.1938,5.1931,5.1929,5.1921,5.1919,5.191,5.191,5.1911,5.1911,5.1906,5.1906,5.1888,5.1886,5.19,5.19,5.19,0,5.1974,5.1969,5.1964,5.1961,5.1959,5.1953,5.195,5.1948,5.1944,5.1938,5.1934,5.1928,5.1922,5.1911,5.1908,5.1901,5.1901,5.1895,5.19,5.1901,5.1901,5.1901,5.1901,5.1895,5.1894,5.1894,5.1894,0,5.1962,5.1962,5.1957,5.1951,5.1947,5.1943,5.1938,5.1935,5.1933,5.1929,5.1922,5.1918,5.1909,5.1903,5.1896,5.1893,5.1893,5.1893,5.1891,5.1891,5.1892,5.1891,5.1909,5.1893,5.1893,5.1893,5.1893,5.1893,5.1954,5.195,5.1946,5.194,5.1936,5.1932,5.1928,5.1925,5.192,5.1913,5.1912,5.1905,5.19,5.1891,5.1887,5.1881,5.1882,5.188,5.1879,5.1879,5.1878,5.1893,5.188,5.188,5.188,5.188,5.188,0,5.1942,5.194,5.1934,5.1928,5.1924,5.1925,5.192,5.1916,5.1909,5.1905,5.1899,5.1891,5.1884,5.188,5.1873,5.1869,5.1869,5.1867,5.1868,5.1867,5.1877,5.1879,5.1867,5.1867,5.1867,5.1867,5.1868,5.1868,5.1936,5.1928,5.1927,5.1917,5.1915,5.1908,5.1905,5.1901,5.1897,5.1888,5.1883,5.188,5.1875,5.1868,5.1861,5.186,5.1858,5.1856,5.1855,5.1865,5.1866,5.1867,5.1869,5.1855,5.1855,5.1845,5.1845,5.1844]}]]